GW2008 Weather Reports


Display with metric or nautical units.
time (UTC)temp
F
wind
direction
speed
MPH
gust
MPH
rain 1hr
in
rain 24hr
in
rain mn
in
humidity
%
barometer
mb
20260506062514 67 225 1.0 1.0 0.00 0.00 0.00 42 987.3
20260506062010 67 225 2.0 2.0 0.00 0.00 0.00 42 987.5
20260506061506 67 220 2.0 3.0 0.00 0.00 0.00 42 987.3
20260506061004 67 244 2.0 3.0 0.00 0.00 0.00 42 987.5
20260506060502 67 232 3.0 5.0 0.00 0.00 0.00 42 987.4
20260506050931 68 250 0.0 1.0 0.00 0.00 0.00 40 987.1
20260506050429 68 226 1.0 2.0 0.00 0.00 0.00 40 987.1
20260506044919 68 231 2.0 3.0 0.00 0.00 0.00 40 986.9
20260506044417 69 242 3.0 3.0 0.00 0.00 0.00 40 986.8
20260506043914 69 233 2.0 3.0 0.00 0.00 0.00 39 986.7
20260506043411 69 224 0.0 1.0 0.00 0.00 0.00 39 986.8
20260506042909 69 233 1.0 2.0 0.00 0.00 0.00 39 986.8
20260506042408 69 227 3.0 3.0 0.00 0.00 0.00 39 986.8
20260506041906 69 232 2.0 2.0 0.00 0.00 0.00 39 986.5
20260506041403 70 241 1.0 2.0 0.00 0.00 0.00 39 986.4
20260506040900 70 229 2.0 3.0 0.00 0.00 0.00 38 986.5
20260506040358 70 233 5.0 5.0 0.00 0.00 0.00 38 986.4
20260506035853 70 248 3.0 5.0 0.00 0.00 0.00 37 986.2
20260506035351 70 235 2.0 3.0 0.00 0.00 0.00 37 986.1
20260506034848 70 224 1.0 2.0 0.00 0.00 0.00 38 986.0
20260506034345 70 249 3.0 5.0 0.00 0.00 0.00 37 986.0
20260506033842 71 255 2.0 2.0 0.00 0.00 0.00 37 986.0
20260506033339 71 231 3.0 3.0 0.00 0.00 0.00 37 986.2
20260506032836 71 224 0.0 0.0 0.00 0.00 0.00 37 985.9
20260506032333 71 230 5.0 6.0 0.00 0.00 0.00 36 986.0
20260506031830 71 228 2.0 2.0 0.00 0.00 0.00 36 985.7
20260506031327 72 226 2.0 3.0 0.00 0.00 0.00 36 985.5
20260506030825 72 240 4.0 6.0 0.00 0.00 0.00 35 985.6
20260506030323 72 234 3.0 3.0 0.00 0.00 0.00 35 985.5
20260506025819 72 245 4.0 6.0 0.00 0.00 0.00 35 985.5
20260506025315 72 246 3.0 3.0 0.00 0.00 0.00 35 985.5
20260506024813 72 224 5.0 8.0 0.00 0.00 0.00 34 985.5
20260506024309 72 233 4.0 5.0 0.00 0.00 0.00 34 985.5
20260506023805 73 247 3.0 5.0 0.00 0.00 0.00 34 985.3
20260506023303 73 236 3.0 5.0 0.00 0.00 0.00 34 985.1
20260506022759 73 246 4.0 5.0 0.00 0.00 0.00 34 985.3
20260506022257 73 236 6.0 9.0 0.00 0.00 0.00 34 985.3
20260506021755 73 297 2.0 2.0 0.00 0.00 0.00 34 985.0
20260506021252 73 242 3.0 6.0 0.00 0.00 0.00 34 984.8
20260506020748 73 248 7.0 8.0 0.00 0.00 0.00 34 984.7
20260506020247 74 219 5.0 9.0 0.00 0.00 0.00 34 984.7
20260506015744 74 248 7.0 10.0 0.00 0.00 0.00 34 984.9
20260506015241 74 212 8.0 9.0 0.00 0.00 0.00 33 984.7
20260506014738 75 247 6.0 8.0 0.00 0.00 0.00 33 984.7
20260506014234 75 247 5.0 9.0 0.00 0.00 0.00 32 984.6
20260506013732 75 261 2.0 3.0 0.00 0.00 0.00 31 984.5
20260506013229 75 227 3.0 5.0 0.00 0.00 0.00 32 984.6
20260506012725 76 270 6.0 9.0 0.00 0.00 0.00 31 984.6
20260506012222 75 238 8.0 13.0 0.00 0.00 0.00 32 984.3
20260506011719 76 232 8.0 10.0 0.00 0.00 0.00 32 984.4
20260506011215 76 216 7.0 10.0 0.00 0.00 0.00 31 984.4
20260506010714 76 250 7.0 9.0 0.00 0.00 0.00 31 984.4
20260506010211 76 236 5.0 7.0 0.00 0.00 0.00 31 984.2
20260506005708 77 214 6.0 7.0 0.00 0.00 0.00 31 984.2
20260506005205 77 243 3.0 6.0 0.00 0.00 0.00 30 984.3
20260506004701 77 228 6.0 8.0 0.00 0.00 0.00 31 984.1
20260506004159 77 295 5.0 11.0 0.00 0.00 0.00 31 984.1
20260506003654 78 300 4.0 6.0 0.00 0.00 0.00 30 984.0
20260506003151 77 272 4.0 6.0 0.00 0.00 0.00 30 984.2
20260506002647 77 252 5.0 7.0 0.00 0.00 0.00 31 983.9
20260506002143 77 239 8.0 13.0 0.00 0.00 0.00 31 983.9
20260506001639 77 215 5.0 6.0 0.00 0.00 0.00 31 984.0
20260506001137 77 227 8.0 13.0 0.00 0.00 0.00 32 983.8
20260506000634 77 240 3.0 5.0 0.00 0.00 0.00 32 983.9
20260506000131 77 217 4.0 7.0 0.00 0.00 0.00 32 984.0
20260505235629 77 255 9.0 10.0 0.00 0.00 0.00 33 983.8
20260505235125 78 233 4.0 8.0 0.00 0.00 0.00 32 983.8
20260505234617 78 242 5.0 7.0 0.00 0.00 0.00 30 983.7
20260505234114 77 222 11.0 15.0 0.00 0.00 0.00 31 983.7
20260505233612 78 234 3.0 7.0 0.00 0.00 0.00 31 983.7
20260505233109 78 217 5.0 7.0 0.00 0.00 0.00 31 983.8
20260505232606 77 248 7.0 11.0 0.00 0.00 0.00 31 983.6
20260505232104 78 249 7.0 10.0 0.00 0.00 0.00 29 984.0
20260505231600 78 245 7.0 9.0 0.00 0.00 0.00 29 983.7
20260505231059 77 237 5.0 9.0 0.00 0.00 0.00 30 983.9
20260505230556 78 234 8.0 13.0 0.00 0.00 0.00 30 983.8
20260505230052 77 260 8.0 10.0 0.00 0.00 0.00 31 984.0
20260505225549 77 200 3.0 5.0 0.00 0.00 0.00 33 984.0
20260505225045 77 236 4.0 6.0 0.00 0.00 0.00 33 984.0
20260505224537 77 218 9.0 13.0 0.00 0.00 0.00 32 983.9
20260505224034 78 237 8.0 11.0 0.00 0.00 0.00 31 984.1
20260505223531 78 224 3.0 3.0 0.00 0.00 0.00 31 984.3
20260505223027 77 261 4.0 9.0 0.00 0.00 0.00 32 984.3
20260505222524 77 213 4.0 5.0 0.00 0.00 0.00 33 984.5
20260505222020 78 237 8.0 9.0 0.00 0.00 0.00 32 984.6
20260505221517 78 282 5.0 8.0 0.00 0.00 0.00 33 984.3
20260505221013 77 224 2.0 3.0 0.00 0.00 0.00 32 984.6
20260505220511 75 234 4.0 5.0 0.00 0.00 0.00 34 984.5
20260505220009 76 256 7.0 9.0 0.00 0.00 0.00 34 984.8
20260505215506 76 224 5.0 7.0 0.00 0.00 0.00 35 984.6
20260505215003 76 276 3.0 5.0 0.00 0.00 0.00 35 984.8
20260505214501 76 229 7.0 8.0 0.00 0.00 0.00 34 984.9
20260505213953 76 219 5.0 8.0 0.00 0.00 0.00 34 985.0
20260505213451 77 291 5.0 7.0 0.00 0.00 0.00 34 984.9
20260505212947 77 219 3.0 7.0 0.00 0.00 0.00 33 984.8
20260505212443 76 245 5.0 6.0 0.00 0.00 0.00 34 985.1
20260505211940 76 289 5.0 8.0 0.00 0.00 0.00 35 985.0
20260505211438 76 233 8.0 9.0 0.00 0.00 0.00 35 985.3
20260505210934 76 241 3.0 5.0 0.00 0.00 0.00 35 985.3
20260505210431 75 270 3.0 5.0 0.00 0.00 0.00 35 985.1
20260505205927 76 235 5.0 8.0 0.00 0.00 0.00 35 985.3
20260505205426 76 247 5.0 6.0 0.00 0.00 0.00 36 985.4
20260505204923 77 257 5.0 6.0 0.00 0.00 0.00 34 985.3
20260505204420 77 225 9.0 10.0 0.00 0.00 0.00 34 985.3
20260505203918 78 288 8.0 10.0 0.00 0.00 0.00 35 985.1
20260505203413 76 260 9.0 10.0 0.00 0.00 0.00 36 985.2
20260505202909 76 228 3.0 3.0 0.00 0.00 0.00 35 985.3
20260505202406 76 275 2.0 3.0 0.00 0.00 0.00 35 985.4
20260505201902 76 316 6.0 9.0 0.00 0.00 0.00 36 985.5
20260505201400 76 281 5.0 7.0 0.00 0.00 0.00 35 985.5
20260505200858 74 264 7.0 9.0 0.00 0.00 0.00 36 985.5
20260505200355 75 246 6.0 8.0 0.00 0.00 0.00 36 985.5
20260505195850 75 253 5.0 9.0 0.00 0.00 0.00 35 985.5
20260505195348 75 240 4.0 6.0 0.00 0.00 0.00 36 985.7
20260505194845 74 267 8.0 11.0 0.00 0.00 0.00 37 985.7
20260505194343 76 227 4.0 6.0 0.00 0.00 0.00 36 985.7
20260505193837 75 260 5.0 7.0 0.00 0.00 0.00 36 985.6
20260505193336 75 218 2.0 3.0 0.00 0.00 0.00 37 985.8
20260505192833 75 280 5.0 7.0 0.00 0.00 0.00 37 985.7
20260505192332 75 270 8.0 9.0 0.00 0.00 0.00 37 986.0
20260505191829 76 260 5.0 6.0 0.00 0.00 0.00 37 985.8
20260505191327 77 225 7.0 9.0 0.00 0.00 0.00 37 985.9
20260505190823 76 223 7.0 9.0 0.00 0.00 0.00 36 986.1
20260505190319 75 237 6.0 11.0 0.00 0.00 0.00 36 986.1
20260505185815 76 232 5.0 7.0 0.00 0.00 0.00 38 986.2
20260505185312 75 230 3.0 6.0 0.00 0.00 0.00 38 986.1
20260505184807 74 230 8.0 9.0 0.00 0.00 0.00 40 986.1
20260505184305 74 213 5.0 6.0 0.00 0.00 0.00 40 986.1
20260505183802 74 205 2.0 3.0 0.00 0.00 0.00 40 986.4
20260505183259 74 218 3.0 5.0 0.00 0.00 0.00 39 986.2
20260505182755 74 233 7.0 9.0 0.00 0.00 0.00 40 986.2
20260505182252 74 205 5.0 7.0 0.00 0.00 0.00 41 986.4
20260505181749 74 205 5.0 8.0 0.00 0.00 0.00 40 986.5
20260505181246 74 241 3.0 5.0 0.00 0.00 0.00 39 986.5
20260505180743 74 220 4.0 7.0 0.00 0.00 0.00 41 986.6
20260505180239 74 184 5.0 6.0 0.00 0.00 0.00 39 986.5
20260505175736 74 207 1.0 1.0 0.00 0.00 0.00 40 986.6
20260505175232 74 210 3.0 3.0 0.00 0.00 0.00 40 986.6
20260505174728 72 208 3.0 3.0 0.00 0.00 0.00 44 986.6
20260505174226 73 215 6.0 9.0 0.00 0.00 0.00 43 986.5
20260505173722 73 62 5.0 7.0 0.00 0.00 0.00 44 986.5
20260505173219 72 262 1.0 2.0 0.00 0.00 0.00 43 986.1
20260505172716 71 217 4.0 5.0 0.00 0.00 0.00 44 986.6
20260505172212 73 226 6.0 8.0 0.00 0.00 0.00 43 986.6
20260505171712 72 203 3.0 5.0 0.00 0.00 0.00 42 986.5
20260505171209 72 218 3.0 3.0 0.00 0.00 0.00 42 986.5
20260505170706 71 216 6.0 8.0 0.00 0.00 0.00 43 986.4
20260505170203 71 219 4.0 6.0 0.00 0.00 0.00 43 986.4
20260505165658 70 218 2.0 2.0 0.00 0.00 0.00 44 986.6
20260505165154 70 217 1.0 1.0 0.00 0.00 0.00 45 986.5
20260505164650 70 214 4.0 5.0 0.00 0.00 0.00 44 986.6
20260505164147 70 234 4.0 6.0 0.00 0.00 0.00 43 986.6
20260505163645 69 229 2.0 3.0 0.00 0.00 0.00 45 986.7
20260505163143 71 240 4.0 5.0 0.00 0.00 0.00 44 986.6
20260505162641 69 223 3.0 3.0 0.00 0.00 0.00 45 986.4
20260505162138 69 237 4.0 6.0 0.00 0.00 0.00 46 986.7
20260505161635 68 232 2.0 3.0 0.00 0.00 0.00 45 986.8
20260505161132 69 244 4.0 6.0 0.00 0.00 0.00 45 986.5
20260505160630 69 237 3.0 3.0 0.00 0.00 0.00 46 986.7
20260505160127 68 231 1.0 2.0 0.00 0.00 0.00 46 986.6
20260505153107 68 227 7.0 8.0 0.00 0.00 0.00 47 986.5
20260505152604 68 229 5.0 6.0 0.00 0.00 0.00 47 986.6
20260505152059 68 262 7.0 8.0 0.00 0.00 0.00 46 986.1
20260505151554 68 251 4.0 6.0 0.00 0.00 0.00 45 986.4
20260505151052 68 240 5.0 7.0 0.00 0.00 0.00 46 986.2
20260505150548 68 233 5.0 8.0 0.00 0.00 0.00 46 986.2
20260505140514 66 226 5.0 7.0 0.00 0.00 0.00 51 986.0
20260505124926 65 223 4.0 5.0 0.00 0.00 0.00 62 985.3
20260505124423 65 221 0.0 1.0 0.00 0.00 0.00 62 985.2
20260505123920 66 222 2.0 2.0 0.00 0.00 0.00 61 985.5
20260505123416 65 228 2.0 2.0 0.00 0.00 0.00 61 985.4
20260505122912 65 223 3.0 3.0 0.00 0.00 0.00 61 985.2
20260505122409 65 228 1.0 1.0 0.00 0.00 0.00 61 985.3
20260505121906 66 231 0.0 1.0 0.00 0.00 0.00 61 985.2
20260505121403 66 223 2.0 2.0 0.00 0.00 0.00 61 985.1
20260505120858 66 215 3.0 3.0 0.00 0.00 0.00 60 985.3
20260505120355 66 240 3.0 3.0 0.00 0.00 0.00 60 985.1
20260505115854 66 235 2.0 2.0 0.00 0.00 0.00 60 985.1
20260505115351 66 224 0.0 0.0 0.00 0.00 0.00 60 985.1
20260505114849 66 239 3.0 5.0 0.00 0.00 0.00 59 985.0
20260505114345 66 239 3.0 5.0 0.00 0.00 0.00 59 985.2
20260505113841 66 224 5.0 6.0 0.00 0.00 0.00 59 985.0
20260505113338 66 232 1.0 2.0 0.00 0.00 0.00 59 985.0
20260505112834 66 224 3.0 3.0 0.00 0.00 0.00 59 985.0
20260505112331 66 227 1.0 1.0 0.00 0.00 0.00 59 985.0
20260505111827 66 230 3.0 3.0 0.00 0.00 0.00 59 984.9
20260505111323 66 226 3.0 3.0 0.00 0.00 0.00 58 984.8
20260505110819 67 225 3.0 5.0 0.00 0.00 0.00 58 984.7
20260505110317 67 217 4.0 6.0 0.00 0.00 0.00 58 984.8
20260505101751 68 229 2.0 3.0 0.00 0.00 0.00 55 985.2
20260505101246 68 230 6.0 6.0 0.00 0.00 0.00 56 985.3
20260505100743 68 234 3.0 5.0 0.00 0.00 0.00 56 985.5
20260505100240 68 228 3.0 3.0 0.00 0.00 0.00 55 985.5
20260505095735 68 227 2.0 3.0 0.00 0.00 0.00 56 985.5
20260505095233 68 227 6.0 8.0 0.00 0.00 0.00 56 985.6
20260505094729 68 229 5.0 8.0 0.00 0.00 0.00 56 985.7
20260505094225 68 217 6.0 7.0 0.00 0.00 0.00 56 985.7
20260505093721 69 218 2.0 2.0 0.00 0.00 0.00 55 985.6
20260505093219 69 256 3.0 7.0 0.00 0.00 0.00 54 985.7
20260505092716 69 237 3.0 6.0 0.00 0.00 0.00 53 985.6
20260505092215 69 232 5.0 7.0 0.00 0.00 0.00 52 985.7
20260505091711 70 202 4.0 6.0 0.00 0.00 0.00 51 985.9
20260505091209 70 232 7.0 9.0 0.00 0.00 0.00 51 985.7
20260505090707 70 203 8.0 10.0 0.00 0.00 0.00 51 985.7
20260505090205 70 244 8.0 10.0 0.00 0.00 0.00 50 985.8
20260505085702 70 245 7.0 8.0 0.00 0.00 0.00 50 985.9
20260505085200 70 204 7.0 10.0 0.00 0.00 0.00 50 985.7
20260505084657 70 213 9.0 11.0 0.00 0.00 0.00 49 985.9
20260505084156 70 239 5.0 6.0 0.00 0.00 0.00 49 986.0
20260505083653 70 219 5.0 8.0 0.00 0.00 0.00 49 986.1
20260505083149 70 215 7.0 9.0 0.00 0.00 0.00 49 985.9
20260505082645 70 245 10.0 11.0 0.00 0.00 0.00 48 985.8
20260505082142 70 219 8.0 11.0 0.00 0.00 0.00 48 986.1
20260505081638 70 236 7.0 10.0 0.00 0.00 0.00 48 986.2
20260505081136 70 225 6.0 7.0 0.00 0.00 0.00 47 986.4
20260505080632 70 219 2.0 2.0 0.00 0.00 0.00 46 986.5
20260505080128 70 224 0.0 0.0 0.00 0.00 0.00 46 986.4
20260505075625 70 243 3.0 3.0 0.00 0.00 0.00 45 986.2
20260505075122 70 220 5.0 6.0 0.00 0.00 0.00 44 986.4
20260505074618 71 237 5.0 7.0 0.00 0.00 0.00 44 986.5
20260505074116 71 215 7.0 8.0 0.00 0.00 0.00 44 986.2
20260505073613 71 238 5.0 8.0 0.00 0.00 0.00 44 986.2
20260505073111 71 233 2.0 3.0 0.00 0.00 0.00 44 986.4
20260505072607 71 230 4.0 5.0 0.00 0.00 0.00 44 986.0
20260505072104 71 264 3.0 3.0 0.00 0.00 0.00 44 986.2
20260505071559 72 225 2.0 3.0 0.00 0.00 0.00 44 985.9
20260505071058 72 228 1.0 2.0 0.00 0.00 0.00 43 985.9
20260505070555 72 229 3.0 5.0 0.00 0.00 0.00 43 985.8
20260505070050 72 227 5.0 8.0 0.00 0.00 0.00 43 985.7